Lid_Strength_Index
5 5 5 5 5 5 5 5 5 5 5 5 5 5 4 4 2 3 5 5 9 10 9 7 7 8 7 8 10 8 9 10 10 14 13 14 14 13 14 13 14 15 16 16 15 17 19 10 10 13 10 8 8 8
5 5 5 5 5 6 5 5 5 6 6 5 5 5 4 4 3 2 5 5 4 9 9 5 5 4 5 5 7 7 9 8 8 12 13 11 13 12 13 16 10 15 13 14 14 14 10 9 9 9 8 8 8 7
5 5 5 6 6 6 6 6 6 6 6 5 5 5 4 4 3 2 4 4 7 10 10 9 7 5 4 3 3 8 10 7 7 6 10 10 13 11 15 14 12 10 8 12 12 10 9 9 8 8 7 8 7 7
6 6 6 6 6 6 6 6 6 6 6 6 6 5 4 4 3 3 4 5 6 7 11 10 5 6 3 3 4 5 7 6 6 6 9 10 12 8 12 11 12 10 9 11 11 9 9 8 9 8 8 8 8 8
6 7 7 7 7 7 7 7 7 6 7 6 6 5 4 4 4 4 4 4 4 7 10 10 7 5 4 4 5 5 5 6 8 9 9 11 8 9 9 10 11 8 10 12 13 9 10 9 8 8 9 8 8 8
7 7 7 8 8 7 7 7 7 7 7 7 6 6 5 4 4 6 7 4 4 5 8 12 9 7 5 5 4 6 5 6 7 8 8 9 7 9 12 13 9 7 7 7 9 7 7 7 7 7 8 8 7 8
8 8 8 8 8 7 7 7 7 7 7 6 6 5 5 4 5 8 7 4 3 3 7 11 12 6 4 5 6 5 5 6 7 7 8 9 9 8 11 13 9 7 7 6 6 6 8 7 9 8 8 7 7 7
8 8 8 8 8 8 8 7 7 7 6 6 5 4 4 4 5 7 5 3 2 4 6 12 13 11 5 8 8 6 7 6 6 8 9 9 8 8 12 9 8 7 7 7 6 5 5 5 6 6 7 7 8 7
8 8 8 8 7 7 7 8 7 7 6 5 4 4 6 7 6 5 2 2 2 4 8 10 15 16 7 7 6 7 7 10 7 10 9 9 12 13 9 8 8 7 9 7 6 5 5 6 6 6 6 7 8 7
8 8 7 7 7 7 7 7 5 5 5 4 5 6 7 6 3 3 5 6 6 6 6 10 9 12 7 9 9 9 9 11 13 10 7 12 14 8 7 6 6 6 6 7 7 7 7 7 6 6 6 6 6 6
8 8 7 7 7 7 7 6 5 5 5 8 10 9 7 4 6 6 8 10 8 9 8 9 8 10 7 10 11 10 12 11 14 11 11 12 12 9 6 6 5 5 5 6 5 5 5 5 6 6 6 5 5 6
8 8 7 7 7 7 6 5 5 8 9 9 8 6 6 7 8 9 10 8 9 11 9 10 9 8 7 6 11 11 14 11 14 8 12 14 10 7 6 6 6 5 6 5 4 5 5 4 4 5 5 5 4 4
8 8 7 7 7 6 5 5 5 5 6 6 7 9 9 9 12 12 13 12 11 8 7 8 9 7 7 7 9 12 15 15 10 15 14 11 8 6 6 5 6 5 5 5 5 4 4 4 4 4 5 4 4 5
8 8 7 7 6 6 6 6 6 7 8 8 9 12 11 12 11 11 11 9 7 7 7 7 8 8 8 9 9 13 11 12 13 17 16 10 8 6 5 5 5 6 5 5 5 5 4 4 5 5 5 5 6 6
8 8 7 6 6 6 6 6 6 8 9 11 9 13 11 9 7 7 7 7 6 5 6 8 8 8 10 10 9 11 13 16 17 17 13 8 7 6 6 5 5 5 5 5 5 5 4 5 5 6 6 6 6 6
8 8 7 6 6 6 6 6 7 7 7 9 10 11 10 10 9 8 8 8 6 5 5 6 9 10 11 11 12 13 15 16 15 12 9 7 6 5 5 5 5 4 5 5 4 5 5 5 6 7 7 6 7 7
7 10 7 6 6 5 5 8 8 8 9 9 10 8 9 9 9 8 7 7 4 7 10 9 11 11 9 12 13 13 14 12 10 8 6 6 6 6 5 5 5 4 5 4 4 4 4 4 6 6 7 7 7 8
10 8 6 5 5 6 8 7 8 9 11 10 10 9 9 9 9 8 7 5 7 7 7 9 8 11 13 14 14 10 9 8 7 6 6 6 5 5 5 5 4 4 4 4 4 4 5 6 6 7 7 7 7 8
7 6 5 4 5 7 10 8 7 11 10 9 8 7 7 7 6 6 5 5 5 4 6 8 10 11 11 9 9 8 7 6 7 6 5 4 4 4 5 5 4 4 4 4 4 5 5 6 7 6 7 7 9 9
4 4 4 4 4 8 9 9 6 8 10 10 8 9 9 8 7 7 6 6 6 6 8 9 9 9 9 7 6 6 6 5 6 7 6 5 4 4 5 6 5 4 4 4 3 5 5 5 6 7 7 8 9 9
6 6 5 6 8 8 9 10 10 9 9 10 8 10 10 8 9 8 8 6 8 8 9 7 6 6 6 6 6 5 5 5 5 5 6 7 5 4 4 5 5 5 5 5 5 5 6 6 5 6 7 8 8 9
7 4 7 5 8 7 10 8 9 8 10 10 10 10 11 12 11 10 8 9 9 8 7 6 5 5 5 6 6 5 4 5 5 5 6 6 5 5 5 5 6 6 5 5 5 5 6 5 6 6 7 7 8 9
3 3 5 5 8 9 12 7 9 8 10 10 9 10 10 11 9 7 10 9 8 6 5 5 5 5 5 4 4 5 5 4 5 4 4 5 4 4 5 5 6 5 6 6 5 5 5 7 7 6 7 7 7 7
1 4 6 7 8 12 7 9 8 9 9 11 11 12 11 10 8 10 10 9 7 5 5 6 5 5 5 5 6 5 5 5 5 5 4 5 5 5 5 5 5 4 3 5 5 5 5 5 6 5 6 7 7 7
8 11 8 14 8 9 9 9 9 10 11 10 11 11 11 9 12 11 11 8 7 6 6 5 6 6 6 5 6 6 5 6 5 5 5 4 5 4 4 4 4 4 3 4 5 5 5 5 6 6 6 7 7 7
13 10 12 9 9 9 8 10 10 11 11 11 10 8 9 9 10 11 9 7 7 7 7 6 6 7 6 5 6 6 5 5 5 5 5 4 4 4 5 5 5 5 3 3 5 5 6 6 6 7 7 8 9 7
12 13 10 7 9 8 10 9 9 11 11 10 9 9 10 12 12 9 7 7 6 6 5 4 5 5 6 5 4 4 4 4 4 4 4 3 3 3 4 4 5 4 3 3 4 4 6 6 7 7 8 8 7 8
9 8 10 9 9 9 10 10 10 10 9 7 8 11 11 10 10 7 6 6 4 4 5 4 5 5 3 4 5 5 5 4 3 4 4 4 4 4 3 3 3 8 3 3 4 4 5 5 6 7 7 8 8 8
9 8 8 10 9 10 10 10 10 9 8 8 10 10 8 7 8 8 8 7 6 7 8 8 7 6 6 5 6 7 8 7 6 6 6 6 7 6 4 4 4 4 5 6 9 6 4 4 5 6 7 7 8 8
10 7 9 9 10 11 9 8 9 7 7 7 7 6 5 7 8 7 8 9 9 9 9 8 8 7 8 9 9 8 7 7 8 7 6 5 4 4 4 5 5 6 6 5 7 8 9 7 8 6 7 8 9 10
8 8 9 9 9 8 7 7 6 6 7 7 6 8 8 8 8 7 8 8 8 8 9 9 9 8 8 9 9 9 9 7 7 7 7 6 3 3 3 3 4 6 6 6 6 6 6 6 7 7 8 9 9 9
8 8 8 9 9 7 6 7 8 8 8 7 8 6 6 9 11 9 8 8 9 9 9 9 9 8 7 7 7 7 9 8 8 8 7 6 6 4 3 3 4 5 6 6 6 6 6 7 8 8 8 9 10 10
8 7 7 7 10 9 7 8 8 8 8 9 10 8 9 11 12 9 7 7 8 8 8 7 7 7 7 7 7 7 8 7 9 9 9 9 9 7 5 5 5 5 5 6 6 6 7 8 8 8 9 10 11 11